Showing default

O3B FM19, 44113

Orbit data source: Space-Track

O3B FM19, 44113 is a payload satellite owned by O3B SES (JE) that was launched on Thu, 04 Apr 2019 UTC via a SOYUZ-ST-B launch vehicle from the French Guiana (FRGUI). Payload-class satellites include a variety of spacecraft equipped with specific instruments for various scientific and technological missions. These include communications satellites like Starlink; space stations such as the ISS; scientific satellites like the Hubble; Earth observation satellites from companies like Planet Labs, Umbra, and HawkEye 360; GPS; miniature CubeSats for education and research; and military/defense satellites.

Loading next visibility...
Identifier
44113, 2019-020B
Orbit
Active
Country
Flag of UnknownUnknown / O3B
Related business
Manufacturer
Thales Alenia
Mission
Operational Commercial Communications
Bus & Motor
PRISMA?, LS-400 AOCS?
Mass
700 kg wet, ~500 kg dry
Launch date (UTC)
2019-04-04 (6 years ago)
Launch vehicle
SOYUZ-ST-B
Launch site
French Guiana (FRGUI)
Object type
Payload
Rocket body
Debris
Shape & HBR
Trap Box + 2 Pan, 6.0 m
Radar Cross Section
21.980 m², Large (>1 m²)

Expand to show TLE details & history
Last TLE update: 1 day ago

TLE from 1 day ago
0 O3B FM19
1 44113U 19020B   25241.79876142 -.00000023  00000-0  00000-0 0  9999
2 44113   0.0413  31.6087 0003471 144.8813 183.5130  5.00115999116853
Epoch: 2025-08-29T19:10Z
TLE epoch observation values (Epoch: 2025-08-29T19:10:12.986Z)
Latitude
-0.02425°
Longitude
94.20358°
Altitude
8,069.372 km
Speed
5.252 km/s
True Right ascension
23h 59m 59s
True Declination
0° 01' 27"
Sunlit
Object was in full shadow at epoch
Visualization orbit readout
Latitude
Unknown
Longitude
Unknown
Altitude
Unknown
Speed
Unknown
Apparent Right ascension
Unknown
Apparent Declination
Unknown
Sunlit
N/A
Visualization observer readout
Local Sidereal Time
20:23:32
Azimuth
Unknown
Elevation
Unknown
Doppler factor
Unknown
Orbital elements
Apogee altitude
8,073.954 km
Perigee altitude
8,063.924 km
Semi-major axis
14,447.076 km
Eccentricity
0.00035
Inclination
0.0413°
RAAN
31.6087°
Arg. of periapsis
144.8813°
True anomaly
183.51056°
Mean anomaly
183.513°
Eccentric anomaly
183.51178°
Mean motion
1.24989 °/min
Orbital period
288.02 mins
BSTAR
0
Loading maneuver chart data...
Computing Atmospheric mass density...
Loading historical data...
Loading historical data...
Loading historical data...
Loading historical data...
Loading historical data...
Loading historical data...
Loading historical data...
Other satellites on launch #20 in the year 2019 (2019-04-04 UTC)

Documentation

Showing up to 5 results
|